GFSFLT1_con_lsi_057.txt.gz
Lid_Strength_Index
14 13 13 13 14 14 14 14 14 15 15 15 16 16 17 17 18 18 18 18 18 18 18 19 19 19 19 20 19 20 20 19
15 15 14 15 16 16 15 15 15 15 16 16 16 17 17 17 18 18 18 18 18 18 19 19 19 19 20 20 20 20 20 20
16 16 16 16 16 17 17 16 15 15 16 17 17 17 17 18 18 18 18 18 19 19 19 19 19 20 19 20 20 20 20 20
17 17 16 16 16 17 16 16 16 16 16 17 17 18 18 18 18 18 19 19 19 19 19 19 19 19 19 19 19 20 20 19
17 17 16 16 16 16 17 17 17 17 17 17 17 17 17 18 18 19 19 19 19 19 19 19 19 19 18 19 19 20 20 19
16 17 16 16 16 16 16 17 17 17 17 17 17 17 17 18 19 19 19 19 19 19 19 19 19 18 18 18 19 19 19 19
16 16 16 16 16 16 16 17 17 17 17 17 17 18 18 19 19 19 19 19 19 19 19 19 18 16 15 17 18 18 19 19
15 15 16 16 16 16 16 17 17 17 17 18 17 18 18 18 19 19 19 19 19 19 18 18 18 15 14 14 18 18 18 18
14 14 15 15 16 16 16 17 17 17 18 17 18 18 18 18 19 19 18 18 18 18 18 18 18 14 13 13 17 18 18 17
13 13 15 15 16 17 17 17 17 17 17 17 17 17 18 18 18 18 18 18 18 17 17 17 17 14 13 13 16 16 16 16
14 15 15 16 16 17 18 18 17 17 16 16 16 17 17 17 17 17 17 17 17 17 17 17 16 14 12 12 15 17 16 17
15 16 16 17 17 18 18 17 16 16 16 16 16 16 16 16 17 17 17 17 17 17 17 17 17 17 12 11 15 16 17 16
17 17 17 17 17 17 17 16 16 16 16 16 16 15 15 15 15 15 15 16 16 17 17 18 18 17 14 12 11 12 15 15
17 17 18 18 17 17 17 15 15 15 15 15 14 14 14 15 15 15 16 16 17 18 17 17 19 18 14 13 10 9 10 13
18 19 20 19 18 18 18 17 16 16 17 17 16 17 16 15 16 17 18 18 18 18 18 20 21 20 18 16 15 12 10 9
18 19 20 20 21 21 20 18 18 19 20 20 20 19 21 20 19 18 19 16 18 18 19 21 21 19 16 17 20 21 15 15
19 19 21 21 23 23 23 21 20 21 21 21 20 21 20 20 22 16 16 14 14 15 18 22 15 13 12 11 10 9 9 15
20 21 22 23 24 25 24 22 20 20 21 22 21 22 22 23 21 21 18 13 12 11 11 12 14 11 10 10 9 10 13 16
21 23 23 24 27 27 26 23 23 24 23 24 24 23 24 23 23 22 20 20 23 15 13 12 13 13 12 12 16 22 21 24
24 25 25 26 28 28 26 24 25 24 25 25 25 25 24 24 24 25 25 25 27 26 21 21 15 14 15 16 27 30 31 31

GFSFLT1_con_lsi_060.txt.gz
Lid_Strength_Index
15 14 13 12 11 10 11 13 13 13 14 15 15 15 16 17 17 18 18 18 18 18 18 18 19 19 19 19 19 19 20 19
15 14 14 13 13 12 12 13 14 14 15 15 15 16 17 17 17 18 18 19 18 18 18 19 19 19 19 19 19 20 20 20
15 15 15 15 15 15 13 13 14 15 15 15 16 17 17 17 18 18 19 19 18 18 18 18 19 19 19 20 20 19 20 20
16 16 16 16 15 15 15 14 15 15 15 16 17 17 17 18 18 19 19 19 19 18 19 19 19 19 19 19 19 19 19 19
17 16 16 15 15 15 15 15 16 16 15 16 17 17 17 18 18 19 18 19 19 19 19 19 19 19 19 19 19 19 19 19
16 16 16 16 15 15 15 16 16 16 16 16 17 17 17 18 19 19 19 19 19 19 20 20 20 20 20 19 19 19 19 19
15 16 16 16 15 15 15 16 16 16 16 16 17 17 18 18 19 19 19 19 19 20 20 20 20 17 16 18 18 18 19 19
14 15 15 15 15 15 15 16 17 17 17 18 17 17 18 18 19 19 19 19 20 20 20 20 20 15 14 14 18 18 18 18
13 14 14 15 15 15 16 17 17 17 17 18 17 18 18 19 19 19 19 19 20 20 19 19 18 15 13 13 17 18 18 18
12 13 15 15 15 16 17 17 17 17 17 17 17 17 18 19 19 19 19 19 19 19 19 18 18 14 13 13 15 16 17 17
13 15 16 17 16 17 17 18 17 17 17 17 16 17 18 18 18 18 18 19 18 18 18 17 16 14 13 13 14 16 16 16
16 16 17 17 17 18 18 18 17 17 17 17 16 17 17 17 17 18 18 18 18 18 17 16 16 16 13 11 14 15 15 16
17 18 18 18 17 18 18 18 18 18 17 17 16 16 16 16 17 17 17 18 18 18 17 17 17 16 14 11 11 12 14 15
18 18 19 19 18 19 19 18 18 17 17 16 16 16 16 16 17 17 16 16 17 17 17 16 18 17 13 12 11 11 12 14
18 19 20 20 18 18 17 16 15 16 16 16 15 15 15 15 15 15 15 16 16 16 16 15 19 19 18 16 14 12 12 12
18 19 21 20 21 20 19 17 16 17 18 16 16 15 16 18 16 16 18 15 16 16 16 19 19 19 17 17 19 19 17 20
19 20 21 21 22 22 21 19 18 20 20 19 19 20 20 20 21 16 16 14 15 15 17 22 16 14 12 12 12 12 12 22
20 21 22 24 25 25 23 20 20 20 21 21 21 20 21 21 20 20 17 14 14 14 14 14 14 12 12 11 10 12 13 21
22 23 24 25 27 27 24 22 22 22 22 22 22 22 23 22 22 20 19 19 21 13 12 11 11 11 12 12 16 24 24 26
24 25 25 26 28 28 25 23 24 23 24 24 24 25 24 24 24 23 23 22 24 23 20 20 13 13 14 17 26 28 30 32

GFSFLT1_con_lsi_063.txt.gz
Lid_Strength_Index
14 14 13 12 11 10 9 8 11 11 11 12 13 12 13 14 15 16 17 17 18 18 17 17 17 17 17 17 17 17 17 17
14 14 13 12 12 10 10 11 12 12 12 13 14 14 14 15 16 17 17 18 18 18 17 17 18 17 17 17 17 18 18 18
14 14 14 13 13 11 11 12 12 12 13 14 15 15 15 15 16 17 17 18 18 18 18 18 18 17 17 18 18 18 18 19
15 15 14 14 14 13 12 12 13 13 13 14 15 15 15 16 17 17 18 18 18 18 18 18 18 18 18 18 18 18 19 19
15 15 15 14 14 14 13 13 14 14 14 14 15 15 15 16 17 18 18 18 18 18 18 18 18 18 18 18 19 19 19 18
15 15 15 15 15 14 14 14 14 14 14 14 15 15 15 17 17 18 18 18 18 18 18 18 18 19 19 19 19 19 19 18
13 15 15 15 15 14 14 14 14 14 14 14 15 16 16 17 17 18 18 19 19 19 19 19 19 17 16 18 19 19 19 18
12 13 14 15 14 15 14 14 15 14 15 15 16 16 17 17 18 18 19 19 19 19 19 19 19 16 15 16 19 18 18 17
11 12 13 14 15 14 15 15 15 15 15 16 16 17 17 18 18 18 18 19 19 19 19 19 19 15 15 16 18 17 17 17
11 11 13 14 15 15 16 16 16 16 16 16 16 17 17 18 18 18 18 19 18 18 19 19 19 15 15 15 16 17 16 16
13 13 14 15 16 16 17 17 17 16 16 16 17 17 18 17 18 18 18 18 18 18 18 18 19 14 13 13 14 15 15 16
15 15 15 16 17 17 17 17 17 17 17 17 17 17 17 17 17 17 18 18 18 19 18 18 17 15 12 11 14 14 14 15
16 17 17 17 17 18 18 18 18 18 18 18 18 17 17 18 18 17 18 18 18 18 19 18 17 15 13 11 11 12 14 13
18 18 18 19 18 18 19 18 18 18 19 18 17 17 16 17 17 17 17 18 18 18 18 17 17 16 13 12 10 10 11 12
19 20 20 20 19 19 19 19 18 17 17 17 17 16 16 16 16 16 16 17 17 17 16 15 16 16 15 14 12 11 11 11
18 20 21 20 20 19 18 15 15 16 16 16 15 15 15 16 15 15 15 14 14 14 14 14 17 16 15 16 16 16 14 19
19 20 21 21 22 21 18 16 16 17 17 16 16 17 17 18 19 15 15 13 13 13 14 18 15 14 14 13 13 13 13 19
20 21 22 22 23 23 20 17 18 18 19 19 19 19 19 19 19 18 16 13 14 14 14 15 15 14 13 12 12 11 11 18
22 23 24 25 26 26 22 20 21 21 21 20 21 21 21 20 20 18 17 17 17 14 14 13 13 12 11 11 15 19 21 22
24 25 25 26 27 26 23 21 21 21 22 22 22 22 22 21 21 21 21 21 22 21 18 19 11 12 16 18 22 22 24 25

GFSFLT1_con_lsi_069.txt.gz
Lid_Strength_Index
5 5 6 6 6 6 6 6 6 5 5 5 5 5 4 5 5 6 7 8 9 10 12 12 11 12 11 12 12 12 12 13
5 6 6 6 6 6 6 6 6 6 5 6 6 5 5 6 6 6 7 9 11 13 13 14 14 13 13 13 14 14 14 14
6 6 7 7 6 6 6 6 6 6 6 6 6 6 6 6 7 8 10 13 12 14 14 15 15 14 14 14 15 15 16 16
6 7 6 6 6 6 6 6 6 6 7 7 7 7 8 8 9 11 12 14 15 15 15 16 16 16 15 15 15 15 16 16
5 6 6 6 6 7 7 6 7 7 7 8 7 7 8 8 10 12 13 15 15 15 15 16 16 16 17 17 16 16 16 16
6 5 5 6 7 7 7 7 7 7 8 8 8 8 8 9 10 12 13 15 15 16 16 17 17 17 17 17 17 17 17 17
5 5 6 6 7 7 7 8 7 8 8 8 9 10 11 12 13 14 15 16 16 17 17 17 18 15 14 16 17 17 18 18
5 5 5 6 7 7 7 8 8 9 10 11 11 12 13 14 15 15 16 16 17 17 17 17 17 15 14 15 17 18 18 18
5 5 5 6 6 7 8 9 10 11 11 12 12 13 13 14 15 15 15 16 17 17 17 17 17 14 14 15 17 17 17 17
7 8 8 8 8 10 11 11 11 12 12 12 12 13 14 14 15 15 15 16 16 16 17 17 17 14 14 16 17 17 17 17
9 9 10 10 12 12 12 12 12 12 12 12 13 13 14 14 15 15 15 16 16 16 16 16 17 14 14 16 16 17 17 16
11 12 13 13 13 13 13 14 13 13 14 14 13 14 13 14 14 15 16 17 17 17 17 17 15 14 13 15 16 16 17 17
13 14 14 14 14 14 14 14 14 14 14 14 14 14 14 14 15 15 16 17 18 18 18 17 16 15 13 13 15 15 16 16
15 15 15 15 15 14 15 15 15 15 15 14 14 14 14 15 15 16 16 17 18 18 18 18 17 15 13 13 13 14 15 13
15 16 17 16 15 15 15 15 15 15 15 15 15 14 14 14 14 15 15 16 17 17 17 17 17 16 15 14 13 13 12 12
16 17 17 16 16 15 14 14 14 15 14 14 13 14 14 14 14 14 14 14 15 15 15 16 17 16 15 14 13 13 12 12
17 17 18 17 17 16 15 14 14 14 14 13 13 13 13 14 14 12 13 13 13 13 13 14 13 13 13 12 12 11 11 14
17 17 17 17 18 18 15 13 12 13 13 13 14 14 14 14 14 17 15 13 13 12 12 12 12 12 12 12 11 10 11 14
18 19 18 19 20 18 15 13 14 13 13 13 13 14 14 14 14 15 15 16 16 15 15 14 13 13 12 12 12 14 13 13
20 21 19 20 22 20 17 16 15 15 15 15 15 15 15 15 14 14 15 16 16 16 15 14 13 13 13 13 14 14 16 16

GFSFLT1_con_lsi_072.txt.gz
Lid_Strength_Index
8 8 8 8 8 8 7 7 7 7 7 6 6 6 6 6 7 8 8 8 9 9 9 9 9 8 8 9 9 10 11 12
8 8 8 8 8 8 8 8 7 7 7 7 7 7 6 7 7 8 9 9 10 10 10 11 11 10 9 11 11 11 13 14
8 8 9 9 8 8 8 8 8 7 7 7 7 7 7 8 8 9 10 12 12 13 12 13 12 12 11 12 12 13 14 15
9 9 9 9 9 9 8 8 8 8 8 8 8 8 8 8 9 10 11 13 14 15 14 14 14 14 13 12 13 13 14 15
8 9 8 8 9 9 9 8 8 8 8 9 9 8 8 9 10 12 13 15 16 15 15 15 15 15 15 14 14 14 15 15
9 8 8 8 9 9 9 9 8 9 8 8 8 9 9 11 12 14 15 15 16 16 16 16 16 16 16 15 15 16 16 17
8 8 8 8 8 8 9 9 9 8 9 9 11 11 12 12 13 14 15 16 16 17 17 17 17 15 14 15 16 16 17 17
7 7 7 8 8 8 9 9 11 11 12 13 13 13 13 14 14 15 16 17 17 17 17 17 17 14 13 14 16 17 17 17
8 8 8 9 9 10 11 12 12 13 14 15 14 14 15 15 15 16 16 17 17 17 17 16 17 14 13 14 17 17 17 17
9 10 10 10 12 14 14 13 13 13 13 14 15 15 15 16 16 17 17 17 16 16 17 16 17 14 13 15 16 17 17 17
11 11 12 14 15 15 14 15 14 14 14 14 15 16 16 16 17 17 17 16 16 16 15 16 16 14 13 15 16 17 17 17
13 13 14 15 15 15 15 16 15 16 16 16 16 17 17 18 18 17 16 16 16 16 16 16 16 14 13 13 16 16 17 17
15 14 15 15 15 16 16 16 17 17 17 18 19 17 17 16 15 16 16 16 17 17 17 16 15 14 13 13 14 14 16 16
16 16 16 17 16 16 16 16 16 17 19 19 19 18 18 18 16 16 16 16 17 17 17 17 16 15 12 12 13 13 15 15
16 17 18 17 16 17 16 17 16 16 17 18 18 18 17 17 17 17 16 16 16 17 17 17 17 16 14 13 13 13 14 13
17 17 17 17 17 15 16 16 16 16 15 15 15 15 16 16 17 17 17 15 16 15 15 16 17 16 14 13 13 13 13 13
18 18 18 18 19 19 16 17 17 16 14 14 13 15 17 17 14 12 12 11 11 11 13 14 13 13 13 12 12 12 11 14
19 19 18 19 19 19 17 13 13 13 14 14 15 16 15 15 15 16 13 11 10 10 11 12 11 12 12 11 12 11 11 14
19 20 20 19 20 20 18 15 13 13 13 13 14 14 14 15 16 16 16 17 17 13 13 12 12 11 11 11 11 14 15 16
20 21 21 22 23 22 18 17 16 15 15 15 15 14 14 14 14 15 16 17 17 17 16 14 13 14 14 14 16 17 18 18

GFSFLT1_con_lsi_075.txt.gz
Lid_Strength_Index
9 9 9 9 9 8 8 8 8 8 7 7 6 6 6 6 7 6 7 7 8 7 7 7 7 7 7 8 9 9 9 9
9 9 9 9 9 9 8 8 8 8 8 8 7 7 7 6 7 7 8 8 9 9 8 8 8 8 8 8 9 10 9 9
9 9 9 9 9 9 9 8 8 8 8 8 7 7 7 7 8 8 8 10 9 10 10 9 9 9 8 9 9 10 11 11
9 9 9 9 9 9 9 8 8 8 8 8 8 8 8 8 9 9 9 10 12 12 12 11 11 11 10 10 10 10 11 11
10 10 9 9 10 10 9 9 9 9 9 9 8 8 8 9 9 10 11 12 13 13 13 14 13 13 12 12 12 12 12 13
9 9 9 9 9 9 9 9 9 9 9 8 8 9 9 10 11 12 13 13 14 15 15 15 14 14 14 13 13 14 15 15
8 8 9 9 9 9 9 9 9 9 9 9 10 11 11 12 12 13 14 14 15 15 16 16 15 14 12 13 14 14 15 16
9 9 9 10 10 10 10 10 11 12 12 12 12 13 12 13 13 13 14 15 15 16 16 16 15 13 12 13 15 15 15 16
9 10 10 10 11 12 13 13 12 13 14 14 14 14 14 15 14 15 15 16 16 17 17 16 16 14 12 13 15 15 15 16
10 10 11 11 13 14 14 14 13 13 13 14 15 15 15 15 16 17 18 18 18 17 18 16 16 14 12 13 16 16 16 16
11 11 13 13 15 15 14 15 14 14 14 13 15 16 16 15 17 18 17 17 16 15 15 15 16 13 12 12 15 16 16 16
12 12 13 14 15 15 15 15 15 15 15 16 16 17 17 17 15 15 15 15 16 16 16 16 16 14 12 12 15 16 16 16
13 13 13 15 16 15 15 15 16 17 16 17 19 17 16 13 14 15 15 16 16 17 17 16 15 14 12 11 14 14 15 16
14 14 14 16 16 17 17 17 17 19 20 20 19 18 18 14 15 15 16 17 17 17 17 17 16 15 12 11 12 12 15 14
15 16 16 17 17 16 16 16 19 18 18 18 19 19 19 17 17 16 16 17 17 17 17 17 17 17 14 13 12 13 14 13
15 16 18 19 18 16 14 17 18 18 16 15 17 18 17 17 20 18 18 16 17 18 18 18 18 16 13 12 13 13 13 13
17 18 20 20 19 19 15 14 18 14 14 14 15 15 15 15 14 11 11 11 11 11 13 15 14 12 11 10 10 10 10 12
18 18 16 17 18 18 17 16 13 13 14 15 15 15 15 15 14 15 13 10 9 9 10 11 11 11 10 9 9 9 10 14
16 21 20 17 17 18 17 15 13 13 14 15 14 14 14 15 16 16 16 16 15 11 10 9 10 10 10 9 9 13 14 14
18 18 22 19 20 19 17 14 14 14 14 14 14 14 14 14 15 15 16 17 17 17 15 16 12 12 12 13 16 17 18 18

GFSFLT1_con_lsi_078.txt.gz
Lid_Strength_Index
9 9 9 9 9 9 9 9 8 8 8 7 7 6 6 6 6 6 6 7 7 7 6 6 5 4 4 5 6 7 8 8
9 9 9 9 9 9 9 9 9 8 8 8 8 7 7 6 6 6 7 7 8 7 6 6 6 6 6 5 6 8 8 8
10 10 10 10 9 9 9 9 8 8 8 8 8 8 8 7 7 8 8 9 8 9 8 7 7 7 7 7 7 8 9 9
10 10 10 10 10 10 10 9 9 9 9 9 9 9 9 8 8 9 9 10 11 10 10 9 9 8 8 7 8 8 8 9
10 9 9 10 10 10 10 10 9 9 9 9 9 9 9 9 9 9 10 10 11 11 11 11 10 10 10 10 9 9 9 9
10 10 10 10 10 10 10 10 10 10 10 9 9 9 10 10 11 11 11 11 12 12 12 13 13 13 12 12 11 11 11 13
10 10 10 11 11 10 11 11 11 11 12 11 12 12 12 12 12 12 12 12 13 13 13 14 13 12 11 11 12 13 13 13
10 10 11 11 11 12 13 12 13 13 13 13 13 13 12 12 12 12 13 13 14 14 15 15 15 12 11 11 13 13 13 14
10 11 11 11 12 13 14 14 13 13 13 13 14 14 14 14 13 13 13 14 15 15 15 16 15 12 11 12 13 14 14 14
10 10 11 12 13 14 13 13 13 13 13 13 13 14 14 14 14 16 17 17 17 16 16 15 15 12 12 12 14 15 15 15
11 11 12 12 13 14 13 14 13 13 14 14 14 15 15 14 16 17 17 14 15 14 14 14 13 13 12 12 14 15 16 16
11 12 12 13 13 14 14 13 14 14 14 15 15 15 15 15 14 14 13 14 14 14 15 14 14 14 12 11 14 15 16 16
12 12 12 13 14 14 14 13 14 14 15 16 17 16 15 15 13 14 14 14 15 15 16 16 15 14 12 11 13 14 15 15
14 14 14 16 16 16 15 14 15 16 16 17 18 17 17 13 14 14 14 15 15 16 16 16 15 14 12 11 12 13 14 14
16 16 16 18 16 17 14 13 15 17 14 15 18 17 19 17 14 13 14 15 15 15 16 16 15 15 13 12 12 13 14 13
16 16 16 17 17 18 16 14 14 14 14 13 13 16 18 16 17 16 16 15 16 15 15 16 17 15 11 11 12 13 14 14
16 17 17 18 18 18 19 15 14 13 12 13 13 14 14 14 13 11 11 11 11 12 14 15 13 12 10 10 10 11 10 14
14 15 17 19 19 21 20 17 15 13 11 12 13 13 13 13 13 14 13 10 10 10 11 11 11 11 10 9 9 9 9 14
19 21 21 20 21 21 22 20 16 11 11 12 14 13 12 13 13 14 15 16 16 13 11 9 9 9 9 9 10 13 13 15
19 22 24 24 22 23 21 18 15 14 15 14 13 12 11 12 13 14 15 16 16 16 15 16 12 12 12 12 16 16 17 17

GFSFLT1_con_lsi_084.txt.gz
Lid_Strength_Index
11 10 10 10 10 10 10 10 10 9 9 9 9 8 8 8 7 7 6 7 7 7 6 5 3 2 2 2 4 5 5 6
11 10 10 10 10 10 10 10 10 9 9 9 9 9 9 9 8 8 8 8 8 8 8 7 7 6 5 4 3 4 5 6
10 10 10 11 11 11 10 11 11 10 10 10 10 10 10 10 9 9 9 9 9 9 9 9 8 8 8 7 6 6 6 6
11 12 12 12 12 12 12 12 12 12 12 11 11 11 10 10 10 10 10 10 11 11 10 9 9 7 7 6 6 6 6 6
13 13 12 12 12 12 12 12 13 13 12 12 12 12 12 12 12 12 11 11 12 12 12 12 11 9 9 9 7 7 6 6
12 12 12 12 12 13 13 14 14 14 14 14 13 13 13 13 13 13 13 12 13 13 13 13 12 10 10 10 9 9 8 9
12 12 13 13 13 13 14 14 14 14 14 13 14 14 14 13 13 13 13 13 13 13 13 12 12 10 8 8 9 10 10 10
12 13 13 14 14 14 14 15 15 15 15 15 14 14 14 14 14 13 13 13 13 13 13 13 13 10 9 9 10 11 11 11
12 12 13 14 14 15 15 15 15 15 15 15 14 15 14 14 14 14 14 14 13 13 13 14 13 10 10 10 11 11 11 11
12 12 13 13 14 14 14 14 15 14 14 15 15 15 15 16 13 13 13 14 14 13 13 14 14 11 10 10 11 12 11 12
13 13 13 13 14 15 14 16 15 15 14 15 15 16 16 15 14 14 15 13 12 13 13 12 12 11 10 11 12 11 12 13
13 12 12 13 14 15 15 15 15 15 15 16 16 16 16 16 15 14 15 14 15 13 13 14 12 12 10 10 12 12 12 13
12 12 12 13 15 15 15 15 16 15 14 14 17 13 15 18 17 14 12 13 12 12 13 13 12 11 10 10 10 10 13 13
14 14 14 16 17 16 16 16 17 18 16 13 13 13 12 13 14 15 16 13 13 13 13 13 14 15 10 9 8 9 12 12
17 17 17 18 17 18 18 18 23 21 18 14 13 12 12 11 12 13 17 17 15 16 15 16 16 15 13 9 9 10 11 11
17 17 16 18 19 20 19 22 22 21 18 16 14 12 11 11 11 12 14 13 14 14 16 16 18 16 9 9 11 13 12 14
16 16 17 20 21 22 24 25 25 21 19 17 16 14 12 11 12 9 8 8 7 7 10 15 10 8 7 7 8 8 9 12
16 16 17 18 19 22 26 27 25 23 20 18 16 13 12 13 17 15 14 9 9 8 7 7 7 7 7 7 7 7 9 13
20 20 19 20 22 24 28 28 25 24 21 19 16 13 12 14 17 16 17 17 14 11 10 7 6 6 6 7 9 13 13 14
22 23 25 25 23 27 27 25 25 22 19 18 16 14 13 14 16 16 15 16 14 13 12 13 10 10 10 11 14 16 17 18

GFSFLT1_con_lsi_087.txt.gz
Lid_Strength_Index
10 10 10 10 10 10 10 10 10 9 9 8 8 8 7 7 7 7 6 6 6 5 5 4 3 2 2 2 2 3 3 4
10 10 10 10 10 10 10 11 11 10 10 9 9 9 8 8 8 8 7 7 7 7 7 7 6 5 5 4 4 4 4 5
10 10 11 11 11 11 11 11 12 11 11 11 11 11 11 11 10 10 10 9 9 8 8 8 7 7 7 6 6 5 5 5
11 11 11 12 12 12 12 13 13 13 12 12 12 12 12 12 11 11 11 10 10 10 9 9 8 7 7 6 6 5 5 5
11 12 12 12 13 13 13 13 14 13 13 13 13 13 13 13 13 12 12 12 12 11 11 11 10 10 9 8 7 6 6 5
12 13 13 13 13 13 14 14 14 14 14 14 14 14 14 14 14 13 13 13 12 12 12 12 11 11 10 10 9 8 8 7
12 13 13 13 14 14 14 15 15 15 15 15 15 15 15 15 14 14 14 13 13 13 13 13 12 10 9 9 9 9 10 9
12 13 13 13 14 14 14 14 14 14 14 15 15 15 14 14 14 14 14 13 13 13 13 12 12 10 9 9 10 10 10 10
12 13 13 14 14 14 14 14 14 15 15 16 15 15 15 15 15 14 14 14 13 13 13 12 12 10 9 9 9 9 9 10
12 12 13 14 14 14 14 15 15 15 15 15 15 16 16 16 16 15 14 14 14 13 13 13 12 10 9 9 10 10 10 9
12 12 13 13 14 15 15 16 15 15 15 15 16 17 17 17 17 16 16 14 13 13 13 13 13 11 10 10 10 10 10 10
12 12 13 13 14 15 15 15 15 16 16 15 14 16 16 15 15 16 16 14 14 14 12 13 13 13 10 9 10 10 10 10
12 12 13 14 16 16 16 15 17 17 17 17 15 13 13 13 13 12 14 14 14 14 14 13 13 12 10 9 9 8 10 10
14 15 15 17 17 17 16 17 18 20 20 19 17 14 13 12 12 11 12 13 14 15 14 14 13 13 11 10 8 8 10 10
17 17 18 18 17 18 18 19 24 23 21 19 18 16 14 12 12 11 12 12 13 13 12 12 13 13 12 9 9 9 10 10
17 18 17 18 19 20 20 23 23 22 20 19 17 17 16 14 12 11 11 11 11 10 10 11 12 12 8 8 9 10 9 11
19 19 19 21 21 22 26 27 27 23 20 20 19 18 16 14 12 10 9 8 8 8 8 7 9 7 7 7 7 7 7 11
21 20 21 22 22 24 28 29 28 25 23 21 20 19 17 14 12 14 12 9 8 8 8 6 7 7 6 6 7 7 9 12
25 24 24 25 25 26 29 30 29 27 24 22 20 19 17 15 13 13 14 14 14 11 10 9 8 8 6 7 9 13 13 14
27 27 30 28 27 29 30 28 28 25 22 21 20 18 17 15 13 14 14 15 16 15 12 12 10 10 10 11 13 15 16 17

GFSFLT1_con_lsi_093.txt.gz
Lid_Strength_Index
6 6 6 6 7 6 6 7 6 6 6 6 6 6 6 6 7 6 6 6 6 6 5 5 5 5 4 4 3 3 3 3
7 7 7 6 6 7 7 7 7 7 7 7 7 7 7 7 8 8 7 8 8 8 8 8 7 7 6 6 5 5 5 5
7 7 7 7 7 7 8 8 8 7 8 8 8 8 8 9 9 9 9 9 9 9 9 9 9 8 8 8 7 7 7 6
7 7 7 8 8 9 9 9 9 8 8 9 9 9 10 10 10 10 10 10 10 10 10 10 10 10 9 9 9 8 8 8
8 8 8 8 8 9 9 9 9 9 9 10 11 11 11 11 11 11 11 11 11 10 10 10 10 10 10 11 10 10 10 9
8 8 8 8 9 9 9 10 10 10 11 11 11 11 11 12 12 12 12 11 11 12 11 11 11 11 11 11 11 11 11 10
8 8 9 9 10 10 11 11 11 12 12 12 12 13 12 13 13 13 12 12 12 12 12 12 11 10 10 11 11 11 11 11
8 9 9 9 10 11 11 11 12 12 13 13 13 13 13 13 13 13 13 13 13 12 12 12 12 11 11 11 11 11 11 10
8 9 9 10 11 12 12 12 13 13 13 14 14 14 14 14 14 14 13 14 13 13 13 12 12 11 10 10 11 11 10 10
9 10 11 11 12 12 13 13 13 14 14 14 15 15 15 16 15 14 14 14 13 13 13 13 12 11 10 10 11 11 11 11
10 11 12 12 12 13 14 14 14 15 15 15 15 16 15 14 14 13 13 13 13 13 12 12 12 10 10 10 11 12 11 11
11 12 12 14 14 14 14 15 16 16 16 16 16 16 15 14 13 13 13 13 12 12 10 11 11 11 10 10 11 12 11 11
13 14 14 14 14 15 15 16 16 17 17 17 17 16 15 15 14 13 12 11 11 11 11 10 10 10 10 10 10 9 10 10
13 14 15 15 15 15 16 16 17 19 19 18 17 16 15 15 14 13 12 12 12 12 11 11 11 10 10 9 9 8 10 10
14 15 16 16 16 16 17 18 21 19 18 16 16 15 15 13 13 13 13 12 12 12 12 11 11 11 10 10 10 9 9 8
15 15 16 16 16 17 18 20 19 18 18 17 15 15 15 14 14 14 13 13 13 12 12 12 12 11 9 8 9 8 7 8
16 17 17 18 18 18 21 22 22 19 17 16 17 16 16 16 15 13 12 12 11 10 10 10 9 8 8 7 6 7 7 8
17 18 18 19 19 20 21 23 23 22 20 19 18 17 17 17 17 17 15 13 12 10 9 9 8 8 8 7 6 8 7 9
19 21 21 21 22 21 22 23 25 24 22 21 19 18 18 17 17 17 17 17 15 11 9 8 8 8 8 8 7 8 10 11
22 22 23 24 23 23 25 25 24 22 20 19 19 19 18 18 18 17 16 15 14 12 10 9 9 9 10 10 9 9 11 12

GFSFLT1_con_lsi_096.txt.gz
Lid_Strength_Index
9 9 9 9 9 9 8 9 9 9 9 9 9 9 9 9 9 9 9 9 9 9 9 8 8 8 8 8 8 8 8 7
9 9 9 9 9 9 9 9 9 9 9 10 10 10 10 10 10 10 10 10 10 10 10 10 10 10 10 10 10 10 9 9
9 9 9 9 9 10 10 10 10 9 10 10 10 11 11 11 11 11 11 11 11 11 11 11 11 11 11 11 11 11 11 10
9 9 9 10 10 11 11 11 10 10 11 11 11 12 12 11 11 12 12 12 12 12 12 12 12 12 11 11 11 11 11 11
9 10 10 11 11 12 11 11 11 11 12 12 12 12 12 12 13 13 13 13 13 13 13 13 13 12 13 13 12 12 11 11
9 10 11 12 12 12 12 12 12 12 12 12 12 13 13 14 15 15 15 14 15 15 14 14 13 13 13 13 13 13 13 12
10 11 11 12 13 12 13 12 12 13 13 13 14 15 15 15 15 15 15 15 15 15 15 15 13 11 11 11 13 13 14 14
10 10 11 11 11 12 12 12 13 14 15 15 16 16 16 16 16 16 16 16 16 16 16 15 15 12 11 11 13 13 13 12
10 11 11 11 12 12 12 13 14 15 16 16 16 17 16 17 17 17 16 17 17 16 16 16 14 12 11 12 13 13 13 12
10 10 11 12 13 14 15 15 15 16 16 16 17 18 18 19 18 17 18 17 18 16 17 17 14 12 12 12 12 12 11 11
11 12 13 13 14 15 15 16 16 16 16 16 17 19 20 18 19 18 18 15 15 14 13 13 13 12 11 10 11 12 11 11
12 13 14 14 15 15 16 16 16 17 17 18 18 20 20 19 18 19 19 17 19 16 15 13 13 14 9 9 10 11 11 11
14 15 15 15 15 16 16 17 18 19 19 21 23 20 19 23 22 22 21 21 19 18 16 15 14 10 9 9 9 9 11 11
15 16 16 16 15 17 18 18 20 22 25 25 24 22 22 24 23 22 22 21 18 17 15 13 12 10 9 9 9 9 10 10
15 16 17 17 17 18 20 21 25 26 25 23 24 24 23 20 19 23 22 19 18 16 15 14 13 11 11 10 10 10 10 9
15 16 17 18 20 21 22 23 23 25 23 24 22 24 22 20 20 19 18 18 17 14 13 13 13 12 10 10 10 10 8 9
17 17 19 21 22 24 25 25 27 25 23 23 23 23 21 20 19 15 13 12 12 11 12 12 10 10 9 8 9 8 7 13
18 20 22 24 25 27 27 27 27 26 25 24 22 23 23 23 21 20 17 14 13 12 12 11 10 10 8 8 8 8 7 10
21 22 23 24 25 27 28 28 30 30 25 27 26 26 25 24 24 22 21 20 18 15 13 11 10 9 9 8 9 11 12 11
24 25 26 27 28 29 30 29 30 28 27 27 27 26 25 24 22 21 20 19 18 17 15 13 10 9 9 9 13 13 14 13

GFSFLT1_con_lsi_102.txt.gz
Lid_Strength_Index
10 10 10 10 10 10 10 10 11 10 10 11 11 10 10 10 11 11 11 11 11 11 11 12 12 11 11 12 12 13 13 12
11 10 11 11 11 11 11 11 11 10 11 11 11 11 11 11 12 12 12 12 12 12 13 13 13 12 13 13 14 14 14 13
11 11 11 11 11 11 11 11 11 11 11 12 12 12 12 13 13 13 13 14 14 14 13 13 13 13 14 14 14 14 14 14
11 11 11 12 12 12 12 12 12 12 12 12 12 13 13 14 14 14 14 14 14 14 14 14 14 14 15 14 14 14 15 14
11 11 11 11 12 12 12 12 12 12 13 13 14 14 14 14 15 15 15 15 14 14 15 15 16 15 15 14 15 15 15 14
10 11 11 11 11 11 12 12 13 13 13 14 15 15 15 16 16 15 15 15 15 15 16 16 16 15 14 14 14 14 14 15
9 10 11 11 12 12 12 13 13 14 15 15 16 16 16 16 15 15 15 15 15 16 16 17 16 13 13 13 14 14 14 15
9 9 10 11 11 12 13 14 15 16 16 16 16 16 16 16 15 15 16 16 16 16 17 17 16 13 13 13 14 14 14 14
8 9 10 11 12 13 14 15 15 16 16 16 16 16 16 16 16 16 16 17 17 17 17 17 16 13 12 12 14 14 13 13
8 9 10 12 12 13 14 15 15 16 16 16 16 16 17 17 18 17 18 19 19 18 19 19 17 14 12 13 14 14 14 14
8 10 11 13 13 14 15 16 15 15 15 16 16 17 18 18 18 18 19 18 18 18 19 19 20 15 13 12 15 16 15 14
10 12 12 14 14 14 15 15 15 16 16 17 17 18 18 18 19 20 20 20 23 21 21 22 20 19 13 12 15 15 14 13
12 12 13 13 13 15 15 15 16 17 17 18 19 18 19 20 21 21 22 24 24 25 24 22 20 16 14 13 12 12 13 13
12 14 14 14 13 15 15 16 17 18 19 20 20 19 20 21 21 22 24 24 24 24 25 24 20 20 14 13 12 12 12 11
14 14 15 14 14 14 16 17 17 19 19 20 20 21 20 20 20 23 24 26 26 26 26 25 21 20 18 16 12 11 10 10
14 14 15 15 16 16 17 18 18 19 20 20 20 21 22 22 22 22 24 24 27 27 26 25 23 17 13 12 12 11 10 9
16 15 17 17 19 19 18 17 19 20 20 20 21 22 22 23 23 20 18 17 17 16 18 22 15 13 12 11 10 10 9 11
16 16 17 18 18 19 19 18 19 19 21 22 22 23 24 24 24 27 25 20 19 17 16 15 14 13 11 11 11 11 11 17
17 17 17 17 19 21 21 20 20 22 22 23 24 24 26 26 26 27 27 29 28 20 17 15 14 13 12 12 15 21 20 25
17 16 17 18 22 23 23 23 24 24 26 26 27 27 26 26 27 28 29 29 29 28 21 20 15 14 14 15 26 26 26 25

GFSFLT1_con_lsi_105.txt.gz
Lid_Strength_Index
10 10 10 9 9 9 9 9 9 10 10 11 11 11 10 10 10 11 12 12 12 12 12 12 12 13 13 14 14 14 13 13
10 10 10 10 10 10 10 10 12 12 12 13 13 12 12 12 12 12 12 12 13 13 13 14 14 14 14 14 14 14 14 14
11 11 12 11 11 11 11 11 11 12 13 13 14 13 12 12 13 13 13 13 14 14 14 14 14 14 14 14 14 15 15 16
12 12 12 12 12 12 12 12 12 12 13 14 14 13 13 13 13 14 14 14 14 15 15 15 15 14 14 14 15 15 16 16
11 12 12 12 12 12 13 12 13 13 13 14 14 14 13 14 14 14 15 15 16 16 16 15 15 14 14 14 15 16 16 15
11 11 11 12 12 12 12 13 13 13 13 14 14 14 14 15 15 16 16 16 16 16 16 15 15 14 15 15 15 16 16 15
10 10 11 11 11 11 12 13 13 13 14 14 14 15 15 16 16 16 16 17 16 16 16 16 15 12 13 14 16 16 16 15
10 10 10 10 11 11 12 13 14 14 15 15 16 16 16 16 16 16 16 16 17 16 16 16 16 13 14 14 16 16 16 15
9 9 9 9 10 11 12 13 14 15 15 16 16 16 17 17 17 17 17 17 16 16 16 16 16 13 13 13 15 15 15 15
7 8 9 10 10 12 13 14 15 15 15 16 16 16 17 17 18 17 17 18 18 16 17 17 17 15 14 13 15 15 15 14
8 9 10 11 12 14 14 15 15 15 15 15 16 17 17 17 17 18 18 17 17 17 18 18 20 16 14 13 16 19 16 16
9 10 10 12 13 13 14 15 14 15 16 17 17 17 17 17 18 18 18 18 19 19 19 19 20 19 14 13 15 16 18 17
10 11 12 13 13 14 14 14 15 16 16 17 17 17 18 18 19 19 19 19 20 19 19 19 19 17 15 14 13 14 18 18
11 13 14 13 12 14 14 16 16 16 17 18 18 18 19 19 20 20 20 19 20 19 20 21 19 20 15 15 14 13 16 15
15 16 15 14 13 13 15 15 16 16 18 19 19 19 19 19 19 20 20 20 20 20 21 21 21 20 19 18 18 15 15 14
16 16 16 15 15 15 15 15 16 17 18 19 19 19 20 20 20 20 20 20 21 21 22 22 22 19 15 16 17 18 16 14
17 16 16 17 16 16 15 15 17 18 19 19 19 20 20 21 21 19 18 17 16 16 19 21 16 15 14 14 12 12 11 14
17 18 17 18 18 17 16 16 16 17 18 19 20 20 21 21 21 23 22 18 17 17 17 17 16 16 15 13 13 14 16 25
18 18 18 18 18 18 17 16 16 17 18 19 20 20 21 22 22 22 22 23 24 21 19 18 17 16 14 14 18 26 26 29
18 18 18 17 19 19 17 17 18 19 19 20 21 21 22 23 24 24 24 25 26 28 24 23 17 15 16 17 29 29 30 30

GFSFLT1_con_lsi_108.txt.gz
Lid_Strength_Index
10 10 10 9 8 8 8 8 7 5 4 5 6 7 9 10 10 11 11 11 12 13 13 13 13 13 13 14 14 14 14 14
11 10 10 10 10 10 10 10 8 7 8 8 10 10 11 11 11 11 12 13 13 13 13 13 13 14 14 15 15 15 15 15
11 11 11 11 11 11 11 11 10 9 9 10 11 12 12 13 13 12 13 14 13 13 13 14 14 15 15 15 16 16 16 15
12 12 11 12 12 12 12 11 11 10 10 11 12 14 13 15 15 14 14 14 14 14 14 15 15 15 15 15 16 16 16 16
12 11 11 12 12 12 12 11 11 11 11 12 13 14 15 15 14 14 14 14 14 15 15 15 16 15 15 15 16 16 15 15
11 11 11 12 12 12 12 12 12 12 12 13 14 14 15 15 14 14 15 15 15 16 16 16 15 15 15 15 15 15 16 15
10 10 11 11 11 11 12 13 13 12 13 14 15 15 14 14 14 15 15 16 16 16 16 16 15 12 13 14 15 15 15 16
9 10 10 10 10 11 12 13 13 14 15 14 14 14 14 15 15 16 17 17 17 17 17 16 15 13 13 13 15 15 15 15
8 8 9 9 10 10 12 13 14 14 14 15 15 15 16 16 16 17 17 17 17 17 17 16 16 13 12 13 15 15 15 15
7 8 9 10 11 12 14 14 15 15 14 14 15 16 16 16 17 17 17 18 18 17 18 17 16 13 12 13 14 14 14 14
9 9 10 10 11 13 13 14 14 14 14 15 15 15 16 16 17 18 17 17 17 17 18 18 17 15 13 12 14 15 15 15
10 10 9 11 12 12 13 14 13 14 15 16 16 16 16 17 18 18 18 18 19 19 19 18 18 17 13 12 14 15 16 16
11 12 12 12 12 13 13 13 14 15 15 16 16 16 17 17 18 18 18 19 19 19 19 19 18 16 14 13 13 13 17 17
13 14 13 14 12 13 13 14 15 15 15 16 17 17 17 18 18 18 18 19 20 19 19 19 18 18 15 14 14 13 16 15
17 17 17 16 15 15 15 15 15 15 16 17 17 18 18 18 18 19 19 19 19 19 19 19 19 18 18 18 18 16 15 14
18 18 18 17 17 16 15 15 15 16 17 17 17 18 19 19 18 19 18 17 18 18 18 19 20 19 17 18 20 19 17 18
18 18 18 18 19 17 15 14 15 17 17 17 18 18 19 20 20 18 17 17 16 16 18 19 18 16 15 14 14 13 14 23
17 17 18 18 18 17 15 14 15 16 17 17 18 18 19 20 20 21 19 16 15 15 15 16 17 15 14 14 14 16 19 26
19 19 18 18 18 17 15 15 15 15 16 17 17 18 19 19 19 19 20 21 22 17 17 16 15 15 15 15 19 25 26 29
21 21 21 20 19 19 17 16 16 17 17 17 17 18 18 19 19 20 20 21 22 24 20 18 16 15 16 17 26 26 29 30

GFSFLT1_con_lsi_111.txt.gz
Lid_Strength_Index
11 10 9 8 7 7 7 7 7 6 5 2 1 3 5 7 9 9 11 11 11 12 11 12 12 12 11 11 12 12 12 12
10 10 9 9 8 8 8 8 7 6 5 4 4 5 6 8 10 11 11 12 12 12 12 12 12 12 12 12 12 13 14 14
10 10 10 10 9 9 9 9 8 7 7 7 7 7 8 9 11 12 13 13 12 12 12 13 13 12 12 13 13 14 14 14
11 10 10 10 10 10 10 10 10 9 8 9 9 8 9 11 13 13 13 14 13 13 13 13 13 13 13 13 14 14 15 14
11 10 10 10 10 11 11 10 11 10 10 10 11 10 11 12 14 14 14 14 13 13 13 13 13 13 14 14 15 15 15 14
10 11 11 11 11 11 10 11 11 11 10 11 11 12 13 14 14 14 14 14 13 14 14 13 13 14 14 15 15 15 15 14
10 10 10 11 11 11 11 11 11 11 11 13 13 13 14 15 15 15 15 14 14 14 14 14 15 13 13 14 15 15 15 15
9 9 9 10 10 10 10 12 12 12 14 14 14 14 15 15 15 15 15 14 14 15 15 15 14 12 13 14 15 15 15 15
8 9 9 10 10 10 12 13 14 14 14 14 14 14 15 15 16 16 15 15 16 16 15 15 14 12 13 14 14 15 14 14
9 9 9 10 10 11 13 13 13 13 14 14 14 14 14 15 16 15 16 16 16 16 16 15 14 12 13 14 15 15 14 13
10 9 9 10 11 12 13 13 13 13 13 14 14 15 15 15 15 16 15 16 16 16 16 16 15 13 13 13 14 15 14 13
11 10 10 12 12 12 12 13 12 13 13 14 14 14 14 15 16 16 16 16 17 17 17 17 17 15 13 12 14 14 14 14
13 12 12 13 13 13 13 13 14 14 14 14 15 15 15 15 16 16 16 17 18 18 19 18 17 16 13 12 12 12 14 14
15 14 13 15 13 14 14 14 15 15 15 15 15 15 15 16 17 17 17 17 18 18 18 19 18 17 14 13 12 12 14 14
16 16 16 17 15 15 15 15 15 15 15 16 16 16 16 16 16 17 17 18 18 18 18 18 18 18 17 15 14 14 13 14
17 17 17 18 18 18 16 15 15 15 16 16 16 16 17 16 17 17 16 16 17 17 17 18 18 17 16 16 17 17 16 17
18 19 18 19 20 19 18 16 16 17 17 16 16 16 17 18 18 16 16 15 15 15 15 17 16 15 15 14 14 14 14 17
19 19 20 19 19 19 19 17 17 16 17 16 17 17 17 18 18 19 17 15 15 15 15 15 15 15 14 14 13 13 15 19
21 21 21 20 18 19 18 17 17 18 17 16 16 17 17 17 17 17 18 19 18 14 14 14 15 14 14 13 14 18 21 22
23 22 22 22 20 21 20 19 17 16 16 16 16 16 16 17 17 17 18 17 18 20 15 15 14 14 14 13 19 19 22 24

GFSFLT1_con_lsi_114.txt.gz
Lid_Strength_Index
10 8 7 6 5 4 4 4 3 2 1 1 1 1 1 1 2 4 6 8 8 9 8 11 9 8 8 9 9 9 9 9
10 9 7 6 6 5 4 4 4 4 4 1 1 1 2 3 6 7 9 10 9 9 10 11 10 9 9 9 10 10 10 10
9 10 8 7 6 5 5 4 4 4 3 3 2 1 2 2 5 7 10 10 12 10 11 11 10 10 10 11 10 10 11 11
9 9 9 8 6 5 5 5 5 5 4 4 4 3 3 4 6 7 11 11 13 11 11 12 10 10 10 11 11 11 11 11
9 9 9 9 8 7 6 5 6 6 5 5 5 5 5 7 8 9 11 12 14 12 12 12 11 11 11 11 11 12 12 12
8 8 9 9 9 9 7 7 7 7 6 6 7 7 9 10 11 12 12 13 13 14 13 12 11 12 12 11 12 12 13 13
8 8 9 9 9 9 9 8 8 8 8 9 10 11 12 12 13 14 14 14 15 14 13 12 13 11 11 11 13 13 14 14
8 8 8 8 9 9 9 9 9 9 10 11 11 12 12 13 14 15 15 14 15 13 13 13 12 12 12 13 13 14 14 14
7 7 7 7 8 7 8 9 10 10 12 12 12 12 13 13 14 15 15 15 14 14 13 12 12 11 12 13 13 13 14 14
7 7 7 7 8 9 10 10 10 10 11 12 12 13 14 14 14 14 15 14 14 14 13 13 12 11 12 13 14 14 15 14
8 7 7 8 9 10 11 11 11 10 11 12 12 12 13 13 14 14 14 14 14 14 14 14 13 12 13 14 14 15 15 14
8 8 8 9 10 11 11 11 10 11 11 12 12 12 12 13 14 14 14 14 14 14 14 14 13 13 12 13 14 14 14 14
10 10 10 10 10 11 11 11 12 12 12 13 13 12 13 13 14 13 14 14 15 15 15 15 14 13 12 12 13 13 13 14
13 12 11 13 11 12 11 12 13 13 13 14 14 13 13 14 14 14 14 14 15 15 15 16 15 14 13 12 11 12 13 13
13 13 13 13 13 12 12 13 13 13 13 13 14 14 14 13 14 14 14 14 15 15 15 15 16 15 14 13 12 13 13 13
14 14 14 14 13 13 13 13 13 13 13 13 13 13 13 13 13 13 13 13 14 14 15 15 16 15 14 14 14 13 13 13
14 14 14 14 15 14 15 13 13 13 14 13 13 14 13 14 14 13 13 13 13 13 13 14 13 13 14 14 13 13 13 15
16 16 15 15 15 15 15 15 14 13 14 14 14 14 14 14 14 16 16 14 13 14 13 13 14 13 13 13 13 13 13 15
17 17 17 17 16 16 15 14 15 14 14 13 14 14 14 14 14 14 15 16 16 14 14 13 13 13 13 12 13 14 13 14
18 19 20 19 18 18 18 16 14 13 13 14 13 13 14 14 14 14 15 15 15 15 14 14 13 12 12 12 14 15 15 17

GFSFLT1_con_lsi_117.txt.gz
Lid_Strength_Index
8 8 7 7 7 7 6 3 1 1 1 1 1 1 1 1 1 1 1 3 4 6 7 7 7 8 7 8 7 8 8 8
8 8 8 7 7 7 6 5 4 2 1 1 1 1 1 1 1 2 4 5 6 7 8 8 9 9 9 9 9 9 10 9
7 8 8 7 7 7 6 6 4 3 3 1 1 1 1 1 2 5 6 7 7 9 10 10 10 10 10 10 10 10 11 10
7 7 7 7 7 7 6 6 5 5 4 4 3 2 2 2 4 6 7 9 9 10 11 11 11 11 11 11 10 10 10 11
7 7 7 7 7 6 6 6 6 6 5 5 4 3 3 2 4 5 6 8 8 11 11 12 12 12 12 11 11 11 11 11
7 6 6 7 7 7 6 6 6 7 7 5 4 4 5 7 8 9 9 10 10 11 14 13 13 12 13 13 11 11 12 12
6 6 6 6 7 7 7 7 7 7 7 7 8 8 9 10 11 12 12 12 12 12 13 14 14 12 12 12 12 13 13 13
7 6 6 6 6 7 7 7 8 8 9 11 11 11 11 12 12 13 12 12 12 13 14 13 14 12 12 12 13 13 13 13
6 6 5 5 6 6 6 7 9 9 10 11 11 12 12 13 13 13 13 13 13 14 14 13 14 12 12 13 12 12 13 13
7 6 6 6 6 7 9 9 10 9 10 11 11 12 12 12 12 12 13 13 14 14 14 14 14 12 12 13 14 14 14 14
7 7 7 6 7 9 10 10 10 10 10 10 11 11 12 12 12 12 13 14 15 15 14 14 13 12 12 13 14 14 14 14
8 8 9 9 10 10 10 10 10 11 11 12 12 13 12 12 13 13 14 14 14 15 14 14 14 12 12 12 14 14 14 15
9 10 11 11 11 11 11 10 12 12 13 13 13 13 13 13 13 13 13 14 14 14 14 13 13 13 11 12 12 12 14 14
12 12 12 13 12 12 12 13 13 13 14 13 13 13 13 13 14 14 14 14 14 15 15 15 14 13 11 11 12 12 13 13
13 13 14 14 14 14 13 14 13 14 13 13 13 13 13 13 13 13 13 14 14 14 14 14 15 14 13 12 12 12 13 13
14 14 14 14 14 14 14 14 14 14 14 13 13 13 13 13 12 13 12 12 13 13 13 14 15 14 13 13 13 12 13 14
15 15 14 14 14 15 14 14 14 13 14 13 13 13 13 13 13 12 12 12 11 11 12 13 12 12 13 12 12 12 12 14
16 16 16 15 16 16 15 15 15 14 13 13 14 13 13 14 13 14 14 13 13 12 11 11 12 12 12 12 12 12 12 14
18 19 18 18 18 18 17 16 16 14 14 13 13 13 13 13 14 14 14 15 14 13 12 12 12 12 12 12 12 13 12 14
20 21 21 21 21 21 20 18 16 14 13 13 13 13 13 14 14 14 14 14 14 14 13 13 12 12 12 12 13 14 14 14

GFSFLT1_con_lsi_123.txt.gz
Lid_Strength_Index
10 10 10 7 5 4 4 4 3 4 3 2 2 2 1 1 2 2 2 2 2 3 3 4 4 5 4 5 6 6 8 10
11 11 11 10 10 8 7 6 5 5 5 4 4 3 3 2 2 2 3 3 3 3 3 4 5 6 6 7 8 7 9 11
11 11 11 11 11 11 10 9 8 7 6 5 5 4 4 3 3 4 3 5 4 5 5 6 6 7 7 8 8 8 9 11
11 11 11 11 10 10 10 9 9 8 8 8 7 5 4 4 4 4 5 6 7 6 6 7 7 8 7 7 8 9 9 11
12 11 11 10 10 10 10 9 8 8 8 8 8 7 6 5 5 6 5 6 7 7 6 8 8 8 9 9 9 8 10 11
11 11 10 10 10 10 10 9 8 8 8 8 8 8 8 7 7 8 8 7 7 8 9 9 9 10 11 11 10 12 12 12
11 11 10 10 10 10 10 9 9 9 9 9 9 10 10 10 10 11 10 10 10 11 10 10 10 9 9 9 10 11 12 14
11 11 11 10 9 10 10 9 10 10 11 11 12 11 12 13 12 12 12 13 13 12 12 12 11 9 9 10 10 11 13 13
11 11 10 10 9 9 10 10 12 12 12 12 12 12 12 13 13 13 13 12 12 12 13 12 12 10 9 11 12 11 12 13
11 10 10 10 10 11 12 12 12 12 12 12 12 14 14 15 14 12 13 13 13 13 13 12 12 10 10 11 12 13 13 14
11 11 11 12 12 12 12 12 12 12 12 12 13 15 15 14 16 16 13 13 14 13 13 13 13 10 10 11 12 14 14 15
12 13 13 14 13 13 13 13 13 13 14 15 14 16 16 16 16 17 14 14 14 14 14 13 13 12 10 11 13 14 15 14
14 15 15 14 13 14 14 14 15 16 16 16 16 15 15 18 18 14 14 14 14 14 15 14 14 12 10 10 11 12 14 15
15 15 16 16 15 15 16 16 17 16 16 15 14 14 14 18 16 14 14 14 15 15 15 15 15 14 11 10 10 11 13 14
17 18 18 18 17 18 18 16 14 17 16 18 18 17 16 17 16 17 15 14 14 14 14 15 15 14 13 12 11 12 12 13
17 18 19 19 19 20 18 19 17 19 18 16 16 19 19 18 18 17 17 16 16 15 13 13 14 13 12 12 12 12 12 13
19 19 21 22 22 23 22 22 20 17 18 19 19 20 19 19 18 13 12 11 11 11 13 15 12 11 11 11 10 10 11 13
21 22 23 24 24 26 25 23 19 19 20 20 19 19 20 20 19 19 16 13 12 12 11 11 11 11 10 10 10 10 10 12
23 25 26 26 27 27 26 22 16 14 15 15 15 15 15 16 17 18 21 21 19 15 13 12 11 11 11 10 10 12 11 11
26 27 27 28 28 28 26 17 16 16 16 17 16 15 16 16 21 22 22 22 21 21 16 17 13 12 11 10 12 13 12 12